Voltar ao catálogo

STARLINK-37213

AtivoComunicaçõesSSO
NORAD 68686·PAYLOAD·🇺🇸 United States

Lançado Apr 11, 2026 de Vandenberg Space Force Base

Loading…

Próximas Passagens (próximas 24 horas)

TLE

AtualizadoSource: CelesTrak SupGP

Época: Sep 15, 2026, 03:00 UTC

1 68686C 26077AA  26258.12548611  .00036336  00000+0  11275-2 0  2583
2 68686  97.2851 128.1512 0002222  92.2554 246.5335 15.33432997    18

Acompanhe STARLINK-37213 em tempo real com AllMySat

Download on the App Store